Погода в Кадниково

Россия / Свердловская область     56°35′01″N   60°54′36″E
темп.,
°C
ветер,
м/с
пор.,
м/с
влажн.,
%
обл.,
%
осадки,
мм/ч
давл.,
гПа
погр.,
м
7 мая, пт
пт723:00+5з28630 0.0 1016156
02:00+4з27730 0.0 1018134
05:00+4з24811 0.0 102080
08:00+10з356254 0.0 1019341
11:00+16зюз34429 0.0 10191303
14:00+19зюз33325 0.0 10191961
17:00+20юз233129 0.0 10182280
20:00+16ююз24456 0.0 101758
8 мая, сб
сб823:00+11ююз225753 0.0 101831
02:00+9юз22585 0.0 101924
05:00+8зюз116536 0.0 101910
08:00+14ююз124969 0.0 1018229
11:00+19ююз2228100 0.0 10181530
14:00+21ююв2224100 0.0 10172776
17:00+20юв222464 0.0 10162632
20:00+16зсз245199 0.0 1017151
9 мая, вс
вс923:00+11сз2371100 0.0 101751
02:00+10ссз227593 0.0 101721
05:00+10с227690 0.0 101743
08:00+14ссв2358100 0.0 1018256
11:00+19св2236100 0.0 10171031
14:00+21всв332799 0.0 10172693
17:00+21всв232772 0.0 10172521
20:00+17вюв3644100 0.0 1018147
10 мая, пн
пн1023:00+14зсз224775 0.0 101911
02:00+12в225284 0.0 102026
05:00+11в116128 0.0 102113
08:00+16юв235318 0.0 1022327
11:00+21вюв23375 0.0 10231948
14:00+21вюв333281 0.0 10222426
17:00+21вюв333425 0.0 10221382
20:00+18з014486 0.0 102311
11 мая, вт
вт1123:00+13ю245696 0.0 102359
02:00+13зюз2659100 0.0 1023132
05:00+13зсз2366100 0.0 102356
08:00+12сз2791100 0.8 1023334
11:00+13сз467981 3.8 1024833
14:00+13сз566463 0.1 10251157
17:00+16сз574018 0.1 10241772
20:00+12ссв486027 0.0 1026692